EUTELSAT 7 WEST A

Last updated on Wed Sep 09 2026 00:02:59 GMT+0000 (Coordinated Universal Time)

1 37816U 11051A 26251.36433701 -.00000081 00000+0 00000+0 0 9994 2 37816 0.0646 339.2542 0005956 193.2697 298.7513 1.00271098 54713
UTC large
Height (km)
Speed (km/s)
/
Latitude / Longitude
Inclination (degrees)
Orbital Period (minutes)
Azimuth
Elevation
Range (km)
Doppler Factor

Next 0 passes for location: London (51.5072 / 0.1276)

No passes found over London.
EUTELSAT 7 WEST A